Flag for Switzerland Weather past 2 weeks in Küssnacht, Schwyz, Switzerland

Now
65 °F

Passing clouds.


Feels Like: 65 °F
Forecast: 45 / 62 °F
Wind: 3 mph from North

Location: Altdorf

Current Time: Sep 16, 2014 at 11:59:01 AM

Latest Report: Sep 16, 2014 at 11:00 AM


Visibility: 16 mi

Pressure: 29.97 "Hg

Humidity: 68%

Dew point: 55 °F

Location of KüssnachtLocation

Historic Weather in Küssnacht — Graph

°F

Küssnacht temperature yesterday

Maximum temperature yesterday: 69 °F (at 5:00 PM)
Minimum temperature yesterday: 52 °F (at 7:00 AM)
Average temperature yesterday: 61 °F

Past Weeks' High & Low Weather Summary

 TemperatureHumidityPressure
High75 °F (Sep 7, 4:00 PM)98% (Sep 2, 4:00 AM)30.19 "Hg (Sep 2, 4:00 AM)
Low44 °F (Sep 2, 7:00 AM)54% (Sep 7, 4:00 PM)29.84 "Hg (Sep 6, 4:00 PM)
Average60 °F84%30.01 "Hg
* Reported Sep 1 10:00 AM — Sep 16 10:00 AM, Küssnacht, Weather by CustomWeather, © 2014

Note: Actual official high and low records may vary slightly from our data, if they occured in-between our weather recording intervals... More about our weather records

Advertising

Küssnacht weather history for previous 24 hours

 ConditionsComfort  
Time TempWeatherWind HumidityBarometerVisibility
10:00 AM
Sep 16
63 °FMild.No wind69%30.00 "HgN/A
9:00 AM60 °FCool.2 mph80%30.00 "HgN/A
8:00 AM54 °FScattered clouds.2 mph92%30.02 "Hg14 mi
7:00 AM53 °FCool.2 mph92%30.02 "HgN/A
6:00 AM56 °FCool.2 mph88%30.01 "HgN/A
5:00 AM57 °FPassing clouds.2 mph87%30.00 "Hg12 mi
4:00 AM55 °FCool.2 mph93%30.00 "HgN/A
3:00 AM58 °FCool.2 mph88%29.99 "HgN/A
2:00 AM61 °FOvercast.3 mph83%29.97 "Hg9 mi
1:00 AM62 °FCool.5 mph78%29.97 "HgN/A
12:00 AM59 °FCool.1 mph92%29.99 "HgN/A
11:00 PM
Sep 15
62 °FOvercast.1 mph85%29.98 "Hg9 mi
10:00 PM63 °FMild.1 mph83%29.97 "HgN/A
9:00 PM63 °FMild.2 mph85%29.96 "HgN/A
8:00 PM64 °FPassing clouds.2 mph84%29.94 "Hg10 mi
7:00 PM65 °FMild.1 mph81%29.93 "HgN/A
6:00 PM67 °FMild.1 mph75%29.92 "HgN/A
5:00 PM69 °FScattered clouds.1 mph69%29.91 "Hg11 mi
4:00 PM68 °FMild.3 mph66%29.92 "HgN/A
3:00 PM68 °FMild.8 mph69%29.93 "HgN/A
2:00 PM67 °FScattered clouds.7 mph71%29.95 "Hg11 mi
1:00 PM67 °FMild.7 mph71%29.96 "HgN/A
12:00 PM65 °FMild.5 mph71%29.98 "HgN/A
11:00 AM62 °FPassing clouds.6 mph78%29.99 "Hg12 mi
Weather by CustomWeather, © 2014

See weather overviewHow to use our weather pages